This demonstration page uses our WeatherBlox Daily Observations layout. Learn more.

Left ArrowRight Arrow

39.08367, -84.50855

Hourly Observations for March 14, 2015

Temp ( °F °C ) Dew Point ( °F °C ) Humidity (%) Winds ( mph kmh ) Pressure ( in mb ) Visibility ( mi km ) Precip ( " mm )
12:53 am 00:53 Cloudy with Light Rain 48 8.9 48 8.9 100 100 N N/A 30.05 1018 4 6.43736 0.04 1.016
1:53 am 01:53 Cloudy with Light Rain 49 9.4 49 9.4 100 100 N N/A 30.03 1017 4 6.43736 0.03 0.762
2:48 am 02:48 Cloudy with Light Rain 48 9 48 9 100 100 N N/A 30.03 1017 5 8.0467 N/A
2:53 am 02:53 Cloudy with Light Rain 49 9.4 49 9.4 100 100 N N/A 30.01 1016 4 6.43736 0.04 1.016
3:33 am 03:33 Cloudy with Rain 49 9.4 49 9.4 100 100 N N/A 30 1016 2 3.21868 0.05 1.27
3:53 am 03:53 Cloudy with Light Rain 50 10 50 10 100 100 WSW 5 7 29.99 1016 4 6.43736 0.07 1.778
4:30 am 04:30 Cloudy with Rain 50 10 50 10 100 100 SW 5 7 29.97 1015 2.5 4.02335 N/A
4:40 am 04:40 Cloudy with Rain 50 10 50 10 100 100 SW 5 7 29.97 1015 4 6.43736 N/A
4:53 am 04:53 Cloudy with Rain 50 10 50 10 100 100 SW 3 6 29.97 1015 2.5 4.02335 0.12 3.048
5:18 am 05:18 Cloudy with Rain 51 10.6 51 10.6 100 100 N N/A 29.97 1015 3 4.82802 0.05 1.27
5:32 am 05:32 Cloudy with Rain 50 10 50 10 100 100 N N/A 29.97 1015 1.75 2.816345 0.08 2.032
5:53 am 05:53 Cloudy with Rain 50 10 50 10 100 100 N N/A 29.98 1015 1.5 2.41401 0.14 3.556
6:05 am 06:05 Cloudy with Rain 50 10 50 10 100 100 N N/A 29.97 1015 1.5 2.41401 0.04 1.016
6:18 am 06:18 Cloudy with Light Rain 50 10 50 10 100 100 N N/A 29.97 1015 1.75 2.816345 N/A
6:53 am 06:53 Cloudy with Rain 50 10 50 10 100 100 N N/A 29.98 1015 1 1.60934 0.09 2.286
7:37 am 07:37 Cloudy with Light Rain 50 10 50 10 100 100 SW 3 6 29.97 1015 2 3.21868 0.03 0.762
7:53 am 07:53 Cloudy with Light Rain 50 10 50 10 100 100 N N/A 29.98 1015 1.5 2.41401 0.04 1.016
8:27 am 08:27 Cloudy with Light Rain 50 10 50 10 100 100 N N/A 29.97 1015 2.5 4.02335 0.03 0.762
8:53 am 08:53 Cloudy with Light Rain 50 10 50 10 100 100 N N/A 29.98 1015 6 9.65604 0.04 1.016
9:14 am 09:14 Cloudy with Light Rain 52 11 52 11 100 100 N N/A 30 1016 8 12.87472 N/A
9:53 am 09:53 Cloudy 52 11.1 52 11.1 100 100 S 5 7 29.99 1016 8 12.87472 N/A
10:53 am 10:53 Cloudy 55 12.8 54 12.2 96 96 S 9 15 29.95 1014 10 16.0934 N/A
11:53 am 11:53 Cloudy 54 12.2 52 11.1 93 93 W 9 15 29.98 1015 7 11.26538 N/A
12:53 pm 12:53 Cloudy 55 12.8 53 11.7 93 93 W 5 7 29.97 1015 10 16.0934 N/A
1:04 pm 13:04 Cloudy 55 13 54 12 94 94 W 7 11 29.97 1015 10 16.0934 N/A
1:44 pm 13:44 Mostly Cloudy 55 13 52 11 88 88 W 7 11 29.97 1015 10 16.0934 N/A
1:53 pm 13:53 Partly Cloudy 57 13.9 52 11.1 83 83 W 7 11 29.97 1015 10 16.0934 N/A
2:44 pm 14:44 Mostly Cloudy 59 15 52 11 77 77 W 10 17 29.94 1014 10 16.0934 N/A
2:53 pm 14:53 Cloudy 59 15 51 10.6 75 75 W 13 20 29.96 1015 10 16.0934 N/A
3:33 pm 15:33 Partly Cloudy 61 16.1 50 10 67 67 WNW 8 13 29.91 1013 10 16.0934 N/A
3:53 pm 15:53 Mostly Sunny 61 16.1 48 8.9 63 63 NW 10 17 29.95 1014 10 16.0934 N/A
4:53 pm 16:53 Sunny 62 16.7 45 7.2 54 54 NW 12 19 29.97 1015 10 16.0934 N/A
5:53 pm 17:53 Sunny 60 15.6 43 6.1 53 53 NW 7 11 29.98 1015 10 16.0934 N/A
6:53 pm 18:53 Sunny 57 13.9 39 3.9 51 51 WNW 8 13 30.01 1016 10 16.0934 N/A
7:53 pm 19:53 Clear 55 12.8 40 4.4 57 57 NW 7 11 30.04 1017 10 16.0934 N/A
8:53 pm 20:53 Clear 54 12.2 40 4.4 59 59 NNW 6 9 30.07 1018 10 16.0934 N/A
9:53 pm 21:53 Clear 52 11.1 39 3.9 61 61 NW 5 7 30.1 1019 10 16.0934 N/A
10:53 pm 22:53 Clear 50 10 39 3.9 66 66 N N/A 30.11 1020 10 16.0934 N/A
11:53 pm 23:53 Clear 44 6.7 40 4.4 85 85 N N/A 30.14 1021 10 16.0934 N/A

Powered by AerisWeather